Location: San Angelo State Park
(31.4666°N, 100.5360°W)
Time: 12:57:55
(UTC-06:00)

LightSail 2 - Visible Passes

Search period start: 20 November 2019 00:00
Search period end: 30 November 2019 00:00
Orbit: 699 x 728 km, 24.0° (Epoch: 20 November)

Date Brightness Start Highest point End Pass type
(mag) Time Alt. Az. Time Alt. Az. Time Alt. Az.
20 Nov 7.9 04:15:20 12° SE 04:15:20 12° SE 04:15:48 10° SE visible
20 Nov 7.3 05:54:19 10° SW 05:56:28 13° SSW 05:58:37 10° S visible
21 Nov 7.3 05:00:04 15° S 05:00:04 15° S 05:01:52 10° SSE visible
26 Nov 7.2 19:39:03 10° SSW 19:41:24 15° SSE 19:41:24 15° SSE visible
27 Nov 7.4 18:42:41 10° S 18:44:05 11° SSE 18:45:30 10° SE visible
27 Nov 7.6 20:24:53 10° SW 20:26:04 15° SSW 20:26:04 15° SSW visible
28 Nov 6.7 19:27:25 10° SSW 19:31:14 21° SSE 19:31:45 21° SSE visible
29 Nov 7.1 18:30:08 10° SSW 18:33:27 17° SSE 18:36:45 10° ESE visible
29 Nov 7.0 20:13:59 10° SW 20:16:23 23° SSW 20:16:23 23° SSW visible
